SCOUT A DEB, 3591

Orbit data source: Space-Track

SCOUT A DEB, 3591 is space debris in LEO originally from a launch on Thu, 19 May 1966 UTC launched from the Air Force Western Test Range (AFWTR). Debris objects in space refer to the collection of defunct objects orbiting the Earth. Examples of debris include non-operational satellites, rocket bodies, and fragments generated from explosions, collisions, or faulty payload assembly.

Loading next visibility...
Identifier
3591, 1966-041E
Orbit
LEO
Country
Flag of USUS
Related business
Manufacturer
Unknown
Mission
Spacecraft
Bus & Motor
Unknown
Mass
Unknown
Launch date (UTC)
1966-05-19 (60 years ago)
Launch vehicle
Unknown
Launch site
Air Force Western Test Range (AFWTR)
Object type
Payload
Rocket body
Debris
Shape & HBR
Unknown shape, 0.2 m
Radar Cross Section
Small (<0.1 m²)

Expand to show TLE details & history
Last TLE update: 1 day ago

TLE from 1 day ago
0 SCOUT A DEB
1 03591U 66041E   25346.50836234  .00000403  00000-0  24107-3 0  9990
2 03591  90.2197  78.0519 0086468   6.1614 354.0609 14.03980825 41190
Epoch: 2025-12-12T12:12Z
TLE epoch observation values (Epoch: 2025-12-12T12:12:02.506Z)
Latitude
0.00001°
Longitude
173.59248°
Altitude
820.644 km
Speed
7.475 km/s
True Right ascension
05h 12m 12s
True Declination
0° 00' 00"
Sunlit
Object was in full shadow at epoch
Visualization orbit readout
Latitude
Unknown
Longitude
Unknown
Altitude
Unknown
Speed
Unknown
Apparent Right ascension
Unknown
Apparent Declination
Unknown
Sunlit
N/A
Visualization observer readout
Local Sidereal Time
11:56:57
Azimuth
Unknown
Elevation
Unknown
Doppler factor
Unknown
Orbital elements
Apogee altitude
939.748 km
Perigee altitude
814.28 km
Semi-major axis
7,255.151 km
Eccentricity
0.00865
Inclination
90.2197°
RAAN
78.0519°
Arg. of periapsis
6.1614°
True anomaly
353.95726°
Mean anomaly
354.0609°
Eccentric anomaly
354.00919°
Mean motion
3.51215 °/min
Orbital period
102.5 mins
BSTAR
0.00024107
Loading maneuver chart data...
Computing Atmospheric mass density...
Loading historical data...
Loading historical data...
Loading historical data...
Loading historical data...
Loading historical data...
Loading historical data...
Loading historical data...

Documentation

Showing up to 5 results
|